Location: Quesnel
(52.9830°N, 122.4830°W)
Time: 14:43:11
(UTC-07:00)

ISS - All Passes

Search period start: 18 September 2014 00:00
Search period end: 28 September 2014 00:00
Orbit: 414 x 417 km, 51.6° (Epoch: 18 September)

Date Brightness Start Highest point End Pass type
(mag) Time Alt. Az. Time Alt. Az. Time Alt. Az.
18 Sep - 04:59:46 10° SW 05:02:47 32° SSE 05:05:49 10° E visible
18 Sep - 06:35:56 10° WSW 06:39:15 69° S 06:42:35 10° E daylight
18 Sep - 08:12:35 10° W 08:15:51 55° SSW 08:19:07 10° ESE daylight
18 Sep - 09:49:37 10° W 09:52:08 20° SSW 09:54:38 10° SSE daylight
19 Sep - 04:11:23 10° SSW 04:14:09 24° SSE 04:16:55 10° E visible
19 Sep - 05:47:12 10° WSW 05:50:30 61° S 05:53:48 10° E visible
19 Sep - 07:23:48 10° W 07:27:07 64° S 07:30:25 10° ESE daylight
19 Sep - 09:00:37 10° W 09:03:30 27° SSW 09:06:23 10° SSE daylight
20 Sep - 03:23:12 10° S 03:25:30 18° SE 03:27:49 10° E visible
20 Sep - 04:58:29 10° WSW 05:01:44 51° SSE 05:04:59 10° E visible
20 Sep - 06:34:59 10° W 06:38:19 70° S 06:41:38 10° E daylight
20 Sep - 08:11:43 10° W 08:14:48 36° SSW 08:17:54 10° SE daylight
20 Sep - 09:50:19 10° SW 09:50:48 10° SW 09:51:18 10° SSW daylight
21 Sep - 02:35:27 10° SSE 02:36:53 12° SE 02:38:19 10° ESE visible
21 Sep - 04:09:48 10° SW 04:12:57 40° SSE 04:16:07 10° E visible
21 Sep - 05:46:09 10° W 05:49:29 71° S 05:52:48 10° E visible
21 Sep - 07:22:49 10° W 07:26:02 46° SSW 07:29:15 10° SE daylight
21 Sep - 09:00:11 10° WSW 09:02:12 15° SW 09:04:12 10° S daylight
22 Sep - 03:21:11 10° SW 03:24:10 31° SSE 03:27:10 10° E visible
22 Sep - 04:57:17 10° WSW 05:00:37 67° S 05:03:56 10° E visible
22 Sep - 06:33:55 10° W 06:37:12 57° SSW 06:40:29 10° ESE daylight
22 Sep - 08:10:54 10° W 08:13:30 21° SSW 08:16:06 10° SSE daylight
23 Sep - 02:32:42 10° SSW 02:35:24 23° SSE 02:38:06 10° E visible
23 Sep - 04:08:26 10° WSW 04:11:43 59° SSE 04:15:01 10° E visible
23 Sep - 05:45:00 10° W 05:48:19 66° S 05:51:38 10° ESE visible
23 Sep - 07:21:47 10° W 07:24:44 29° SSW 07:27:39 10° SE daylight
24 Sep - 01:44:27 10° S 01:46:38 16° SE 01:48:49 10° ESE night (unlit)
24 Sep - 03:19:35 10° WSW 03:22:49 49° SSE 03:26:03 10° E visible
24 Sep - 04:56:03 10° W 04:59:23 71° S 05:02:42 10° E visible
24 Sep - 06:32:45 10° W 06:35:53 38° SSW 06:39:00 10° SE daylight
24 Sep - 08:10:50 10° WSW 08:11:54 11° SW 08:12:58 10° SSW daylight
25 Sep - 00:56:47 10° SSE 00:57:53 11° SE 00:58:59 10° ESE night (unlit)
25 Sep - 02:30:47 10° SW 02:33:54 38° SSE 02:37:02 10° E night (unlit)
25 Sep - 04:07:04 10° W 04:10:24 71° S 04:13:44 10° E visible
25 Sep - 05:43:43 10° W 05:46:58 49° SSW 05:50:12 10° ESE visible
25 Sep - 07:20:58 10° WSW 07:23:09 16° SW 07:25:19 10° S daylight
26 Sep - 01:42:04 10° SW 01:45:00 29° SSE 01:47:56 10° E night (unlit)
26 Sep - 03:18:05 10° WSW 03:21:24 66° S 03:24:43 10° E visible
26 Sep - 04:54:41 10° W 04:57:59 59° SSW 05:01:17 10° ESE visible
26 Sep - 06:31:36 10° W 06:34:18 23° SSW 06:36:59 10° SSE daylight
27 Sep - 00:53:29 10° SSW 00:56:05 21° SSE 00:58:41 10° E night (unlit)
27 Sep - 02:29:05 10° WSW 02:32:22 57° SSE 02:35:39 10° E night (unlit)
27 Sep - 04:05:38 10° W 04:08:57 67° S 04:12:16 10° ESE visible
27 Sep - 05:42:23 10° W 05:45:23 31° SSW 05:48:22 10° SE visible
